Location: Moscow
(44.4414°N, 72.7154°W)
Time: 06:57:08
(UTC+00:00)

Vanguard 1 Rocket - Pass Details

Date: 13 November 2024
Orbit: 650 x 4218 km, 34.3° (Epoch: 04 December)

Event Time Altitude Azimuth Distance (km) Brightness Sun altitude
Rises 22:28:26 0° 277° (W) 6,535 13.2 -11.5°
Reaches altitude 10° 22:34:27 10° 267° (W) 4,828 12.5 -12.5°
Maximum altitude 22:43:21 24° 220° (SW) 2,759 10.5 -14.1°
Drops below altitude 10° 22:49:04 10° 169° (S) 2,974 10.0 -15.1°
Sets 22:51:46 0° 154° (SSE) 3,612 10.3 -15.6°
